• In Uzbekistan
  • List of Countries
  • For 7 days
  • Water Temperature
  • Satellite Maps
  • Weather Map
  • Weather Widgets
  • user-avatar
    Login

    Hourly Weather Kutul

    Today, 18 October, Thursday

    Time Temperature Precipitation Wind Pressure Humidity
    00:00 +11°C° 0 mm 1 mps 679 mmHg 58%
    01:00 +11°C° 0 mm 1 mps 679 mmHg 53%
    02:00 +11°C° 0 mm 1 mps 679 mmHg 49%
    03:00 +11°C° 0 mm 1 mps 678 mmHg 44%
    04:00 +11°C° 0 mm 1 mps 678 mmHg 39%
    05:00 +11°C° 0 mm 1 mps 678 mmHg 35%
    06:00 +11°C° 0 mm 1 mps 678 mmHg 31%
    07:00 +13°C° 0 mm 1 mps 679 mmHg 32%
    08:00 +15°C° 0 mm 1 mps 679 mmHg 32%
    09:00 +18°C° 0 mm 1 mps 680 mmHg 33%
    10:00 +18°C° 0 mm 2 mps 680 mmHg 35%
    11:00 +18°C° 0 mm 2 mps 680 mmHg 37%
    12:00 +19°C° 0 mm 2 mps 680 mmHg 40%
    13:00 +19°C° 0 mm 2 mps 680 mmHg 44%
    14:00 +18°C° 0 mm 2 mps 679 mmHg 49%
    15:00 +18°C° 0 mm 2 mps 679 mmHg 53%
    16:00 +16°C° 0 mm 2 mps 679 mmHg 63%
    17:00 +14°C° 0 mm 1 mps 679 mmHg 73%
    18:00 +13°C° 0 mm 1 mps 678 mmHg 83%
    19:00 +12°C° 0 mm 1 mps 678 mmHg 80%
    20:00 +12°C° 0 mm 1 mps 679 mmHg 77%
    21:00 +12°C° 0 mm 1 mps 679 mmHg 74%
    22:00 +12°C° 0 mm 1 mps 679 mmHg 71%
    23:00 +12°C° 0 mm 1 mps 678 mmHg 68%

    Tomorrow, 19 October, Friday

    Time Temperature Precipitation Wind Pressure Humidity
    00:00 +11°C° 0 mm 1 mps 678 mmHg 65%
    01:00 +11°C° 0 mm 1 mps 678 mmHg 62%
    02:00 +10°C° 0 mm 2 mps 678 mmHg 59%
    03:00 +10°C° 0 mm 2 mps 678 mmHg 56%
    04:00 +10°C° 0 mm 2 mps 678 mmHg 53%
    05:00 +10°C° 0 mm 2 mps 678 mmHg 51%
    06:00 +10°C° 0 mm 2 mps 678 mmHg 48%
    07:00 +13°C° 0 mm 2 mps 678 mmHg 44%
    08:00 +15°C° 0 mm 2 mps 679 mmHg 39%
    09:00 +17°C° 0 mm 2 mps 680 mmHg 35%
    10:00 +18°C° 0 mm 2 mps 680 mmHg 36%
    11:00 +19°C° 0 mm 2 mps 679 mmHg 37%
    12:00 +20°C° 0 mm 3 mps 679 mmHg 38%
    13:00 +19°C° 0 mm 3 mps 679 mmHg 42%
    14:00 +19°C° 0 mm 3 mps 679 mmHg 46%
    15:00 +19°C° 0 mm 3 mps 678 mmHg 51%
    16:00 +17°C° 0 mm 2 mps 678 mmHg 60%
    17:00 +15°C° 0 mm 2 mps 678 mmHg 70%
    18:00 +13°C° 0 mm 1 mps 677 mmHg 80%
    19:00 +13°C° 0 mm 1 mps 677 mmHg 79%
    20:00 +13°C° 0 mm 1 mps 677 mmHg 78%
    21:00 +13°C° 0 mm 1 mps 678 mmHg 77%
    22:00 +13°C° 0 mm 2 mps 677 mmHg 76%
    23:00 +12°C° 0 mm 2 mps 677 mmHg 74%

    Day after tomorrow, 20 October, Saturday

    Time Temperature Precipitation Wind Pressure Humidity
    00:00 +12°C° 0 mm 2 mps 677 mmHg 73%
    01:00 +12°C° 0 mm 2 mps 677 mmHg 72%
    02:00 +12°C° 0 mm 2 mps 676 mmHg 71%
    03:00 +12°C° 0 mm 2 mps 676 mmHg 69%
    04:00 +12°C° 0 mm 2 mps 676 mmHg 68%
    05:00 +12°C° 0 mm 2 mps 676 mmHg 66%
    06:00 +10°C° 0 mm 2 mps 676 mmHg 64%
    07:00 +14°C° 0 mm 2 mps 676 mmHg 56%
    08:00 +16°C° 0 mm 2 mps 677 mmHg 47%
    09:00 +19°C° 0 mm 1 mps 677 mmHg 39%
    10:00 +19°C° 0 mm 2 mps 677 mmHg 38%
    11:00 +20°C° 0 mm 2 mps 677 mmHg 36%
    12:00 +21°C° 0 mm 2 mps 677 mmHg 35%
    13:00 +20°C° 0 mm 2 mps 677 mmHg 38%
    14:00 +20°C° 0 mm 2 mps 676 mmHg 40%
    15:00 +20°C° 0 mm 2 mps 676 mmHg 43%
    16:00 +18°C° 0 mm 2 mps 676 mmHg 51%
    17:00 +16°C° 0 mm 1 mps 675 mmHg 59%
    18:00 +14°C° 0 mm 1 mps 675 mmHg 67%
    19:00 +14°C° 0 mm 1 mps 675 mmHg 64%
    20:00 +14°C° 0 mm 1 mps 675 mmHg 61%
    21:00 +14°C° 0 mm 1 mps 675 mmHg 59%
    22:00 +14°C° 0 mm 1 mps 675 mmHg 57%
    23:00 +14°C° 0 mm 2 mps 675 mmHg 55%

    21 October, Sunday

    Time Temperature Precipitation Wind Pressure Humidity
    00:00 +14°C° 0 mm 2 mps 674 mmHg 53%
    01:00 +13°C° 0 mm 2 mps 674 mmHg 52%
    02:00 +13°C° 0 mm 2 mps 674 mmHg 50%
    03:00 +13°C° 0 mm 2 mps 674 mmHg 48%
    04:00 +13°C° 0 mm 2 mps 674 mmHg 45%
    05:00 +13°C° 0 mm 2 mps 674 mmHg 43%
    06:00 +13°C° 0 mm 2 mps 674 mmHg 40%
    07:00 +15°C° 0 mm 1 mps 675 mmHg 35%
    08:00 +18°C° 0 mm 1 mps 675 mmHg 31%
    09:00 +20°C° 0 mm 1 mps 676 mmHg 27%
    10:00 +20°C° 0 mm 2 mps 676 mmHg 28%
    11:00 +21°C° 0 mm 2 mps 675 mmHg 30%
    12:00 +21°C° 0 mm 3 mps 675 mmHg 32%
    13:00 +21°C° 0 mm 3 mps 675 mmHg 34%
    14:00 +20°C° 0 mm 2 mps 674 mmHg 37%
    15:00 +20°C° 0 mm 2 mps 674 mmHg 40%
    16:00 +18°C° 0 mm 2 mps 674 mmHg 46%
    17:00 +16°C° 0 mm 1 mps 673 mmHg 52%
    18:00 +15°C° 0 mm 1 mps 673 mmHg 59%
    19:00 +15°C° 0 mm 1 mps 673 mmHg 57%
    20:00 +15°C° 0 mm 1 mps 673 mmHg 55%
    21:00 +15°C° 0 mm 1 mps 673 mmHg 53%
    22:00 +14°C° 0 mm 1 mps 673 mmHg 53%
    23:00 +14°C° 0 mm 1 mps 673 mmHg 52%

    22 October, Monday

    Time Temperature Precipitation Wind Pressure Humidity
    00:00 +14°C° 0 mm 1 mps 673 mmHg 52%
    01:00 +14°C° 0 mm 1 mps 672 mmHg 51%
    02:00 +14°C° 0 mm 1 mps 672 mmHg 50%
    03:00 +14°C° 0 mm 1 mps 672 mmHg 49%
    04:00 +14°C° 0.1 mm 1 mps 672 mmHg 50%
    05:00 +14°C° 0.1 mm 1 mps 673 mmHg 52%
    06:00 +14°C° 0.1 mm 1 mps 673 mmHg 53%
    07:00 +15°C° 0.2 mm 1 mps 673 mmHg 53%
    08:00 +15°C° 0.2 mm 1 mps 673 mmHg 52%
    09:00 +16°C° 0.2 mm 1 mps 674 mmHg 52%
    10:00 +17°C° 0 mm 2 mps 674 mmHg 50%
    11:00 +18°C° 0 mm 2 mps 674 mmHg 47%
    12:00 +19°C° 0 mm 2 mps 674 mmHg 45%
    13:00 +19°C° 0 mm 2 mps 674 mmHg 47%
    14:00 +19°C° 0 mm 2 mps 674 mmHg 49%
    15:00 +19°C° 0 mm 2 mps 674 mmHg 51%
    16:00 +17°C° 0 mm 2 mps 674 mmHg 58%
    17:00 +16°C° 0 mm 2 mps 674 mmHg 64%
    18:00 +14°C° 0 mm 1 mps 674 mmHg 70%
    19:00 +14°C° 0 mm 1 mps 674 mmHg 67%
    20:00 +14°C° 0 mm 1 mps 674 mmHg 65%
    21:00 +14°C° 0 mm 1 mps 674 mmHg 62%
    22:00 +13°C° 0 mm 2 mps 674 mmHg 60%
    23:00 +13°C° 0 mm 2 mps 674 mmHg 58%

    23 October, Tuesday

    Time Temperature Precipitation Wind Pressure Humidity
    00:00 +13°C° 0 mm 2 mps 674 mmHg 57%
    01:00 +13°C° 0 mm 2 mps 674 mmHg 56%
    02:00 +13°C° 0 mm 2 mps 674 mmHg 55%
    03:00 +13°C° 0 mm 2 mps 674 mmHg 54%
    04:00 +13°C° 0 mm 2 mps 674 mmHg 54%
    05:00 +13°C° 0 mm 2 mps 674 mmHg 54%
    06:00 +13°C° 0 mm 2 mps 674 mmHg 53%
    07:00 +15°C° 0 mm 2 mps 675 mmHg 48%
    08:00 +18°C° 0 mm 1 mps 675 mmHg 43%
    09:00 +20°C° 0 mm 1 mps 676 mmHg 38%
    10:00 +20°C° 0 mm 2 mps 676 mmHg 37%
    11:00 +21°C° 0 mm 2 mps 676 mmHg 35%
    12:00 +22°C° 0 mm 3 mps 676 mmHg 34%
    13:00 +21°C° 0 mm 3 mps 675 mmHg 35%
    14:00 +21°C° 0 mm 2 mps 675 mmHg 37%
    15:00 +21°C° 0 mm 2 mps 674 mmHg 38%
    16:00 +19°C° 0 mm 2 mps 674 mmHg 42%
    17:00 +18°C° 0 mm 2 mps 674 mmHg 47%
    18:00 +16°C° 0 mm 2 mps 674 mmHg 51%
    19:00 +16°C° 0 mm 2 mps 674 mmHg 51%
    20:00 +16°C° 0 mm 2 mps 673 mmHg 50%
    21:00 +16°C° 0 mm 2 mps 673 mmHg 50%
    22:00 +16°C° 0 mm 2 mps 673 mmHg 50%
    23:00 +16°C° 0 mm 3 mps 673 mmHg 51%
    Show more